Content
SEND FEEDBACK

Daily
Averages
Monthly
Summary
Switzerland

ZERMATT, SWITZERLAND


Home > Europe > Switzerland
Elevation: 5282 feet     Latitude: 46 01N     Longitude: 007 45E

WEATHER
 
SELECT A DAY
Number of Records: 133,046;   Date Range: 7/1/96 - 7/27/14
 
SHARE

PRINT THIS DATA

[ ← Previous Day ]
WEATHER ALMANAC - APRIL 26, 2013
[ Next Day → ]
[ °C ]   °F
Weather ElementAverageHighLow
Temperature27.3 °F30.2 °F (1:55 am)23 °F (8:55 pm)
Dewpoint24.7 °F28.4 °F (9:55 am)19.4 °F (11:55 pm)
Humidity88.8 %100 % (9:55 am)79 % (2:00 am)
Barometer30.20 in30.42 in (1:55 am)29.98 in (10:55 pm)
Wind Speed14.2 mph26.5 mph (5:55 pm)
Weather ElementAverage
Visibility1 mi
Wind DirectionSSW (189.6 °)

Weather ElementTotal
Precipitation---
Heating Degree Days38.4 (Base 65)
Averaged from 28 records on April 26, 2013
WEATHER CONDITIONS BREAKOUT
WIND DIRECTION BREAKOUT
WEATHER BY HOUR - APRIL 26, 2013
[ °C ]   °F
Local TimeTemperatureDewpointHumidityBarometerVisibilityWind DirectionWind SpeedGust SpeedPrecipitationEventsConditions
1:55 AM30.2 °F24.8 °F80 %30.42 in6.2 miSouth (190°)17.3 mphScattered Clouds
2:00 AM29.0 °F25.0 °F79 %6.0 miSouth (190°)17.3 mphPartly Cloudy
2:55 AM28.4 °F26.6 °F93 %30.39 in6.2 miSSW (200°)8.1 mphMostly Cloudy
3:55 AM28.4 °F24.8 °F86 %30.39 in6.2 miSSW (210°)6.9 mphMostly Cloudy
4:55 AM28.4 °F26.6 °F93 %30.36 in0.5 miSSW (200°)11.5 mphFogLight Freezing Fog
5:00 AM29.0 °F26.0 °F86 %0.0 miSSW (200°)11.5 mphFogHeavy Fog
5:55 AM28.4 °F26.6 °F93 %30.33 in0.5 miSouth (180°)8.1 mphFogLight Freezing Fog
6:55 AM28.4 °F26.6 °F93 %30.30 in0.5 miSSW (200°)9.2 mphFogLight Freezing Fog
7:55 AM28.4 °F24.8 °F86 %30.30 in0.5 miSouth (180°)6.9 mphFogLight Freezing Fog
8:00 AM29.0 °F26.0 °F82 %0.0 miSouth (180°)6.9 mphFogHeavy Fog
8:55 AM30.2 °F26.6 °F86 %30.30 in0.1 miSouth (180°)9.2 mphFogLight Freezing Fog
9:55 AM28.4 °F28.4 °F100 %30.27 in0.1 miSouth (170°)8.1 mphFog-SnowLight Snow
10:55 AM30.2 °F26.6 °F86 %30.27 in0.1 miSouth (180°)4.6 mphFog-SnowLight Snow
11:00 AM29.0 °F26.0 °F86 %0.0 miSouth (180°)4.6 mphSnowLight Snow
12:55 PM28.4 °F28.4 °F100 %30.21 in0.1 miSouth (190°)11.5 mphFog-SnowLight Snow
1:55 PM28.4 °F26.6 °F93 %30.18 in0.1 miSouth (190°)2.3 mphFog-SnowLight Snow
2:00 PM28.0 °F27.0 °F92 %0.0 miSouth (190°)2.3 mphSnowLight Snow
2:55 PM28.4 °F24.8 °F86 %30.15 in0.1 miSSW (200°)25.3 mphFog-SnowLight Snow
4:55 PM26.6 °F23.0 °F86 %30.09 in0.1 miSouth (190°)19.6 mphFog-SnowLight Snow
5:00 PM26.0 °F24.0 °F87 %0.0 miSouth (190°)19.6 mphSnowLight Snow
5:55 PM26.6 °F23.0 °F86 %30.06 in0.1 miSouth (190°)26.5 mphFog-SnowLight Snow
6:55 PM26.6 °F23.0 °F86 %30.04 in0.1 miSouth (190°)25.3 mphFog-SnowLight Snow
8:00 PM24.0 °F22.0 °F90 %0.0 miSSW (200°)24.2 mphSnowLight Snow
8:55 PM23.0 °F21.2 °F93 %30.01 in0.1 miSouth (190°)17.3 mphFog-SnowLight Snow
9:55 PM23.0 °F21.2 °F93 %30.01 in0.1 miSouth (180°)23.0 mphFog-SnowLight Snow
10:55 PM23.0 °F21.2 °F93 %29.98 in0.1 miSouth (190°)25.3 mphFog-SnowLight Snow
11:00 PM23.0 °F20.0 °F86 %0.0 miSouth (190°)25.3 mphSnowLight Snow
11:55 PM23.0 °F19.4 °F86 %29.98 in0.1 miSouth (190°)20.7 mphFog-SnowLight Snow
Hourly data recorded from LIMH, located miles away from Zermatt, Switzerland







STORIES FROM OUR PARTNERS